Wind_Speed
6 6 7 7 7 8 8 8 8 9 9 9 10 10 10 10 11 12 12 12 12 11 12 12 12 11 10 11 11 11 11 12 13 13 14 16 17 17 16 16 18 20 22 23 25 25 26 28 28 28 28 29 30 31 31 30 30 29 28 27 27 27 26 27 28 28 29 29 29 30 31 32 32 33 34 34 33 34 33 32 30 30 31 30 30
7 7 7 7 7 7 8 8 8 9 10 9 10 11 11 11 12 13 13 13 13 12 12 12 12 12 10 11 11 11 12 12 13 13 14 16 17 18 17 16 17 19 21 23 24 25 26 28 28 28 29 29 30 31 31 30 30 28 27 27 25 24 25 26 27 28 28 29 29 30 31 32 32 32 33 33 33 33 34 34 32 30 31 30 30
8 7 7 7 7 8 8 9 9 10 11 11 11 11 12 12 13 14 13 14 13 12 13 13 13 12 11 11 11 11 12 12 13 13 14 16 17 18 18 17 17 18 20 22 24 25 27 28 28 29 29 29 30 31 30 29 30 28 27 27 25 23 23 24 25 26 27 28 29 29 31 32 31 31 33 33 32 31 32 34 34 31 30 30 30
9 8 7 8 8 8 9 9 10 11 12 12 12 12 12 12 13 13 13 14 14 12 13 13 13 13 12 11 11 11 12 12 13 13 14 15 16 17 18 18 18 18 20 22 24 25 27 28 29 29 30 29 29 31 31 30 30 29 28 26 24 23 22 23 24 25 27 28 28 29 30 30 31 32 33 33 32 31 31 32 34 33 29 29 30
9 9 8 8 8 9 9 10 11 12 12 13 14 13 13 13 14 13 13 14 14 13 14 13 13 14 13 12 11 12 12 12 12 13 14 15 16 17 18 18 19 20 21 22 23 25 26 28 30 29 29 29 29 31 32 32 31 30 28 26 24 23 23 23 24 25 26 27 27 29 30 30 31 32 32 33 32 33 33 32 33 33 31 29 30
8 8 8 8 9 9 10 10 12 13 12 13 14 14 14 15 15 15 14 14 14 14 15 14 15 15 14 12 12 12 12 12 12 12 13 14 15 16 17 18 18 20 22 22 23 24 25 28 30 30 29 28 29 31 33 33 32 30 28 26 25 25 26 26 24 24 25 26 26 27 28 29 29 30 30 32 32 31 31 32 32 32 31 30 30
8 8 9 8 9 9 10 11 12 13 13 14 14 14 15 15 16 16 16 16 14 15 15 16 17 16 15 13 12 12 12 13 12 12 13 14 14 15 17 17 17 19 21 22 23 24 25 27 30 30 29 28 28 31 33 33 31 29 28 26 26 27 28 26 22 22 24 24 25 25 26 26 26 27 29 29 29 28 28 30 31 32 31 29 29
8 8 8 8 9 9 10 12 12 13 13 13 14 15 16 16 17 17 17 17 16 15 16 18 18 17 15 13 12 12 12 12 12 13 14 14 15 15 16 17 18 19 21 21 22 23 25 27 29 29 28 28 29 31 33 32 30 28 27 27 30 30 28 25 20 20 22 22 23 23 24 24 25 27 28 27 28 28 28 29 30 31 31 29 29
8 9 8 8 9 9 10 11 12 13 13 14 14 14 16 17 18 17 17 17 17 16 17 19 19 17 16 15 13 12 12 12 12 12 14 15 16 16 16 17 18 19 21 21 21 23 26 27 28 29 27 27 29 31 32 32 30 28 27 29 33 31 26 22 19 17 19 20 21 22 23 23 24 25 26 25 26 26 26 27 28 29 30 29 28
8 9 9 9 9 9 10 11 12 13 13 14 14 15 16 17 18 17 17 17 17 17 18 20 20 18 18 16 14 12 11 11 11 12 13 15 15 16 17 18 18 19 21 21 20 21 25 27 28 28 27 27 30 31 31 31 30 29 30 34 36 29 21 19 17 17 16 17 19 20 22 23 22 22 23 23 24 24 24 24 26 28 29 28 27
8 9 9 9 9 9 10 11 12 13 14 14 15 16 16 16 18 17 17 16 16 16 18 21 20 18 19 17 14 12 11 10 10 11 13 14 15 16 17 18 18 19 21 21 20 20 22 26 27 28 28 28 30 30 30 30 30 32 34 38 39 31 21 18 17 17 15 15 16 18 19 20 21 20 21 22 22 24 22 21 23 26 27 27 26
7 8 9 9 10 10 10 11 13 13 14 14 15 15 16 17 17 17 18 17 15 16 18 20 20 18 20 18 14 12 9 9 10 11 13 14 15 16 17 18 19 20 21 20 20 20 20 23 27 27 28 28 29 29 29 29 28 33 37 39 40 36 25 19 17 15 13 13 14 15 16 17 18 19 21 21 21 23 22 21 22 24 25 24 24
7 8 9 9 10 10 10 11 12 13 13 14 15 15 15 16 17 17 17 17 16 16 19 20 18 16 16 16 13 11 8 6 8 13 13 13 14 16 17 17 19 20 20 20 20 20 19 21 25 27 27 27 27 27 29 28 28 33 37 37 41 39 29 22 18 14 12 12 12 12 13 15 16 18 20 20 21 23 23 23 22 22 21 21 21
6 8 8 9 10 10 11 11 12 12 12 13 14 14 14 15 16 17 16 16 16 16 19 20 18 17 14 12 10 9 6 3 11 16 13 12 14 15 17 18 19 20 19 19 18 19 20 20 24 27 27 26 25 26 27 27 30 34 35 36 42 42 34 25 20 15 12 11 11 11 11 12 13 16 17 19 21 21 21 21 22 23 21 19 19
6 7 7 9 10 11 11 11 11 12 12 13 14 14 15 15 16 16 16 16 15 15 18 19 19 19 14 9 8 8 5 5 15 19 12 11 14 15 17 18 19 19 18 18 18 19 20 21 23 26 26 26 23 24 27 28 32 35 33 36 43 44 39 34 28 19 13 10 9 10 11 11 11 14 15 17 19 19 20 20 20 23 22 20 19
6 7 7 9 10 10 11 11 11 11 12 13 13 14 15 15 15 15 15 16 15 15 17 17 18 17 12 9 8 7 5 8 16 16 13 15 15 15 17 18 19 18 17 17 18 19 19 20 23 25 26 25 23 24 27 30 33 34 33 37 44 46 44 44 38 24 14 11 9 9 9 11 11 13 15 16 17 18 20 20 19 21 20 21 20
6 7 8 9 9 10 11 11 10 10 11 12 12 13 14 15 15 14 14 14 14 15 15 16 17 16 13 10 8 7 7 13 15 11 13 17 16 16 17 18 20 18 16 16 16 17 17 19 22 25 26 25 24 26 29 32 34 34 34 38 44 47 46 47 44 28 14 11 9 8 9 10 11 13 16 16 17 18 19 19 19 19 20 20 18
6 7 7 8 9 10 10 10 10 10 11 11 12 13 13 14 14 14 14 13 13 14 15 16 15 15 15 12 10 9 10 14 13 9 13 16 16 17 17 19 20 18 15 15 15 16 17 19 21 24 26 25 25 27 31 35 36 35 36 39 43 46 47 48 47 31 13 11 9 8 9 10 12 14 16 17 18 18 18 19 19 19 19 19 15
6 7 7 8 8 9 10 9 9 10 10 11 11 12 13 13 13 13 13 12 12 13 14 15 15 14 15 13 12 12 12 13 10 9 12 14 17 18 17 19 20 16 15 15 15 16 18 19 20 22 25 25 26 27 31 36 36 36 37 40 43 45 47 49 49 34 11 10 9 9 9 10 12 13 15 17 18 18 17 17 18 18 17 17 14
6 7 7 7 7 8 9 8 9 10 10 10 11 11 12 13 13 12 12 11 11 12 13 15 15 14 15 14 13 13 13 12 11 10 9 10 14 16 18 22 19 15 14 15 16 15 17 19 18 21 24 25 27 27 31 36 37 37 38 39 43 44 46 51 50 34 9 7 9 9 9 10 12 14 15 17 17 17 18 18 17 16 15 14 14
5 6 7 7 7 7 8 8 9 10 10 10 10 10 11 12 12 11 11 11 10 11 12 13 15 15 15 15 13 14 14 13 13 13 10 9 10 11 15 20 19 17 16 16 16 15 16 18 17 19 23 25 27 26 29 35 37 36 37 39 42 44 47 52 48 29 7 5 7 8 9 10 12 14 16 16 16 17 18 18 16 15 16 15 14
5 6 6 6 6 6 7 8 9 9 9 9 9 10 10 11 11 10 10 10 10 10 11 12 14 15 15 14 14 14 13 12 13 14 11 9 10 10 13 15 15 16 17 14 14 15 16 17 17 18 22 24 26 26 27 33 35 34 36 39 42 44 47 52 46 24 6 4 5 6 8 10 11 13 15 15 16 17 18 18 17 16 17 18 15
5 4 5 5 5 6 7 8 8 8 9 9 10 10 9 9 9 9 9 9 9 10 10 11 13 14 14 13 13 14 13 12 13 14 11 9 10 10 12 16 15 15 18 16 11 13 15 16 17 18 21 23 24 26 27 29 32 33 35 39 43 46 46 50 45 24 8 5 3 3 5 9 10 11 12 14 15 16 18 18 18 18 17 17 16
4 3 4 4 5 5 6 7 7 7 9 10 10 9 8 8 8 9 9 9 9 10 10 12 13 14 14 13 12 13 14 14 14 14 13 12 12 9 10 15 14 14 22 19 11 13 15 15 17 18 20 23 23 25 26 27 30 31 33 37 43 48 48 51 48 32 14 7 4 3 4 8 11 11 10 13 14 15 16 16 17 17 17 16 15
3 3 3 4 5 5 6 7 7 8 10 10 10 8 7 7 8 8 9 8 9 9 10 12 13 14 15 13 12 12 14 14 14 14 14 14 13 10 11 14 13 12 18 18 12 14 15 15 17 19 20 22 23 24 25 27 31 32 30 33 40 47 49 50 50 42 26 9 3 4 4 7 9 11 11 12 13 13 14 15 16 17 18 16 13
3 3 4 4 4 5 5 6 7 9 10 9 8 6 5 6 7 8 8 7 8 9 10 11 12 14 14 13 12 12 13 14 14 14 14 14 13 11 11 13 13 12 14 17 14 12 14 15 17 19 20 21 22 23 24 27 33 33 29 31 40 45 47 49 49 48 40 19 3 4 4 6 6 8 10 12 12 12 12 12 14 17 18 16 14
4 3 4 4 4 4 5 6 8 9 9 8 7 5 5 6 6 7 7 7 7 8 10 11 12 13 13 13 11 11 13 13 13 14 13 12 12 13 11 10 12 11 11 14 14 12 16 16 15 18 21 21 22 22 22 26 34 33 26 30 40 43 46 50 49 49 49 36 13 5 5 4 5 6 8 11 12 13 13 12 13 16 17 16 17
4 4 4 4 4 4 5 6 7 8 7 6 6 5 5 6 6 7 7 6 7 8 9 10 12 12 12 11 11 11 12 13 12 13 13 12 11 12 11 10 10 10 10 11 10 11 17 18 15 17 21 21 21 22 21 24 33 31 24 29 37 41 44 48 50 50 50 50 34 15 10 8 6 5 6 9 11 13 14 12 13 16 17 18 20
5 4 4 4 4 4 5 6 7 7 6 5 5 4 5 5 6 6 6 7 7 7 8 10 11 11 10 10 10 10 12 12 12 12 13 13 12 12 12 11 11 10 9 10 9 10 15 18 15 16 20 21 20 22 21 23 31 29 23 26 32 38 43 45 50 52 47 50 50 38 29 24 16 11 9 9 11 14 13 13 16 19 20 22 23
5 5 5 5 4 4 5 6 6 6 6 5 5 4 5 5 5 6 6 7 7 7 8 9 10 10 9 9 8 9 11 11 11 12 12 13 13 13 14 13 13 11 10 10 9 10 14 17 16 15 19 21 20 22 22 22 29 28 22 24 28 34 42 44 48 50 47 49 53 52 49 45 36 28 20 13 12 16 17 18 22 25 27 28 29
6 5 5 5 5 5 5 5 6 6 5 5 5 4 4 4 5 5 6 7 8 8 8 8 8 9 9 8 7 8 10 10 11 12 13 13 13 14 15 15 16 15 14 11 8 11 15 16 15 15 18 20 20 21 21 21 26 27 22 23 26 31 39 43 45 45 45 48 51 53 55 53 48 47 42 32 27 30 32 33 36 37 36 37 37
6 6 6 6 5 5 5 5 6 6 5 4 4 4 4 4 4 5 6 7 7 7 8 8 7 8 9 8 7 8 9 10 11 11 12 13 13 14 15 16 17 17 18 14 9 10 14 15 14 14 16 19 19 20 21 20 23 24 22 22 23 28 35 40 43 43 42 45 48 51 54 52 48 49 51 47 46 49 48 47 47 44 41 41 41
7 7 7 6 6 5 5 5 5 5 4 4 4 4 3 3 3 4 6 6 7 7 8 8 7 7 8 7 7 8 8 10 11 11 12 13 13 15 15 15 16 17 17 15 10 9 12 15 15 13 16 19 19 19 20 21 21 22 22 21 20 25 33 37 39 41 42 42 45 48 50 48 44 45 47 48 49 50 50 49 48 44 41 40 38
8 8 7 7 6 6 6 5 5 5 4 3 3 4 3 3 2 3 4 5 6 7 8 8 7 7 7 7 7 7 8 9 10 10 12 13 13 14 15 15 16 16 16 14 12 10 10 14 16 15 16 19 19 19 19 19 20 21 21 21 19 21 28 34 37 40 42 42 42 45 47 45 42 42 44 45 46 48 49 48 46 43 41 39 37
8 8 8 7 7 6 6 5 5 4 4 4 4 3 3 3 2 2 3 4 5 7 8 8 8 7 7 6 7 7 8 9 10 10 11 12 13 13 15 15 15 16 16 15 13 11 11 13 15 15 16 17 18 18 17 17 19 19 20 20 19 18 20 24 30 36 40 41 41 42 44 43 42 42 41 42 43 44 45 44 43 42 40 38 36
8 8 8 8 7 7 6 6 5 4 4 5 4 4 4 4 3 2 2 3 5 6 7 8 8 7 6 6 7 7 7 8 9 10 11 12 13 14 14 14 15 15 15 15 14 12 12 12 13 14 14 14 16 17 16 16 17 18 18 19 20 20 18 19 23 29 34 38 40 41 42 41 41 40 39 39 40 40 38 36 35 35 34 33 33
9 8 8 8 7 7 7 6 5 5 5 5 5 4 4 4 4 3 3 4 5 5 6 8 8 7 6 6 6 7 8 8 9 10 11 12 13 14 14 14 15 15 15 15 14 12 11 12 12 13 13 12 13 15 16 17 16 17 17 19 19 20 19 21 22 23 27 31 35 36 37 39 39 39 38 37 37 38 35 32 31 30 30 30 31
10 9 9 8 8 7 7 6 5 5 5 5 5 5 5 5 4 4 3 4 5 5 6 7 8 6 5 5 6 6 7 8 9 11 12 12 13 13 13 14 15 15 14 14 13 12 11 10 11 12 13 13 12 14 16 16 16 15 16 18 19 19 20 21 21 20 22 26 30 31 31 33 36 38 37 36 35 36 35 33 32 32 30 29 30
10 10 10 9 8 8 7 7 6 5 5 5 5 5 6 5 5 5 5 5 5 5 5 6 7 6 5 5 5 6 7 7 9 11 12 12 12 12 13 14 15 15 14 14 13 12 10 10 11 13 13 13 13 13 14 14 15 16 16 16 17 18 20 22 21 21 21 23 25 27 28 29 33 36 37 37 37 36 36 35 33 31 29 28 28
11 11 10 10 9 9 8 8 7 6 5 5 4 5 6 6 5 6 5 5 5 5 5 6 6 6 4 4 5 6 6 7 8 9 11 12 12 12 14 15 15 15 14 12 12 11 10 10 11 12 12 13 13 14 14 14 16 16 15 15 16 17 18 20 21 22 22 23 24 25 25 26 28 30 31 33 35 35 34 34 32 31 29 29 29
11 11 11 10 10 9 9 9 8 7 6 5 4 5 6 6 6 6 5 5 5 6 6 6 6 5 4 3 5 6 6 6 7 7 9 11 11 11 12 14 15 15 14 13 12 11 11 10 10 11 11 12 14 14 14 14 13 12 11 12 15 17 18 19 21 22 22 23 25 24 23 24 26 27 27 28 30 31 31 31 31 31 30 30 31
12 12 12 11 11 11 11 10 9 8 6 6 6 6 5 6 6 6 5 5 5 5 6 6 6 5 4 3 4 6 6 5 5 6 8 9 9 7 9 12 14 15 14 13 12 11 10 10 10 10 9 11 13 13 12 11 11 11 12 12 14 16 17 16 17 20 21 22 24 24 23 23 25 28 28 27 27 29 30 29 28 28 29 30 30
13 13 12 12 12 12 11 11 10 9 7 8 8 7 5 6 8 7 6 5 5 5 5 5 6 5 4 3 3 4 5 4 4 5 7 9 7 6 8 11 14 16 15 13 12 12 12 11 10 10 10 11 12 12 10 10 11 13 14 14 14 15 16 14 13 15 17 19 23 24 22 22 24 27 27 26 27 30 30 28 26 26 28 28 28
14 13 13 13 12 12 12 11 11 10 9 9 9 7 6 6 7 8 7 6 5 4 4 5 5 5 4 3 3 3 4 4 3 3 5 6 6 6 7 9 14 18 18 15 13 13 13 12 11 11 11 10 10 11 10 9 11 14 14 14 16 16 16 15 13 12 14 16 21 22 21 21 23 26 26 24 26 28 28 26 26 26 26 25 25
14 14 14 13 12 13 13 13 12 10 10 11 10 8 7 7 7 8 7 6 5 4 3 3 4 4 3 3 3 2 3 4 4 3 2 3 3 5 5 6 11 16 18 16 13 12 11 11 11 11 10 9 10 11 10 9 10 14 14 13 15 16 15 15 14 14 14 16 20 21 19 19 21 24 24 23 25 28 27 25 25 24 25 25 27
16 15 15 14 15 16 15 14 13 11 11 12 11 8 7 7 7 8 8 7 6 5 3 2 3 3 3 3 3 2 2 3 5 4 3 2 3 3 3 4 8 12 15 15 13 11 10 10 10 10 10 9 9 9 8 9 12 15 13 12 14 15 16 16 17 16 15 16 18 19 17 16 18 22 22 22 25 29 28 26 25 25 25 25 26
16 15 14 14 16 18 17 15 14 12 12 13 12 9 8 7 7 7 8 7 6 5 4 2 2 2 2 2 2 2 2 3 5 5 4 3 2 3 4 5 7 8 11 14 13 10 9 8 8 9 11 11 9 8 7 8 11 13 12 11 12 14 15 17 18 18 17 16 16 17 16 15 17 21 21 20 24 27 27 27 26 25 26 25 25
14 14 16 16 16 17 17 16 15 13 13 14 12 10 9 8 7 7 8 8 7 5 4 3 2 1 1 2 2 1 1 2 4 5 4 2 2 3 4 5 6 6 8 12 13 11 9 9 8 8 10 11 9 8 7 6 8 9 10 10 10 11 13 14 15 16 16 16 16 17 17 15 16 20 21 20 23 25 26 28 28 26 26 26 25
14 15 18 18 17 17 16 16 15 13 14 15 12 10 10 8 6 7 8 8 8 6 5 4 3 2 2 1 1 1 1 2 3 4 3 2 2 2 3 4 5 7 7 7 9 11 10 11 11 9 8 9 9 7 6 5 7 9 9 9 8 10 12 11 11 13 15 16 15 16 18 16 14 17 19 18 21 22 20 23 26 27 28 27 25
18 20 20 17 16 17 17 16 15 14 14 15 14 11 10 9 7 8 8 8 8 7 6 5 4 4 3 2 1 1 1 1 2 2 1 2 2 1 2 3 5 7 7 5 5 7 9 11 12 10 8 9 9 9 6 4 6 9 10 9 8 10 12 10 10 13 14 14 14 15 16 15 14 15 16 15 16 18 16 16 17 21 24 26 26
18 19 20 17 15 15 16 16 17 16 15 15 15 13 11 10 9 10 10 9 9 8 7 7 6 5 5 4 2 0 1 1 2 1 0 2 3 1 1 2 4 5 6 7 6 5 6 8 9 8 9 9 9 9 8 6 6 8 10 10 9 8 9 10 11 11 9 10 12 13 13 15 14 13 13 13 11 11 14 14 13 14 17 19 21
Wind_Direction
16 14 18 17 16 14 14 12 10 8 1 359 357 352 349 345 343 340 338 334 328 327 324 319 317 313 308 311 311 308 306 305 307 309 313 319 319 322 323 317 316 321 325 328 330 332 332 330 327 324 321 318 318 315 314 313 311 309 307 304 299 294 288 283 276 271 268 265 262 259 255 252 250 247 243 240 238 236 236 235 232 228 229 230 233
17 16 18 18 19 17 17 13 9 7 1 357 356 351 346 343 343 339 338 334 329 329 324 321 318 314 312 311 310 309 307 308 310 310 313 318 320 321 325 322 321 323 325 328 330 332 333 332 328 325 322 320 319 317 318 319 315 314 313 309 303 296 289 283 277 271 268 264 261 258 254 251 248 247 244 241 237 236 234 233 232 228 227 227 227
20 19 20 20 20 18 17 13 9 7 2 356 354 351 345 344 344 340 338 334 329 330 328 324 320 318 316 310 309 310 309 311 311 311 313 318 321 323 325 325 325 326 327 329 330 331 332 332 330 327 324 322 322 322 323 323 319 317 317 314 307 301 294 285 278 272 268 265 261 257 254 252 248 244 243 241 237 236 235 232 231 228 225 225 225
22 18 19 20 18 15 13 11 6 3 359 353 351 350 346 344 344 340 339 335 330 332 331 326 324 322 317 312 311 310 311 313 312 313 315 317 321 324 326 326 327 328 330 331 331 331 332 333 331 329 326 325 325 325 326 326 324 322 320 317 310 305 300 290 279 271 268 264 260 256 253 251 248 244 241 239 235 234 234 232 231 228 224 223 224
22 18 16 16 15 11 8 7 4 358 356 352 350 351 349 347 344 342 341 338 333 336 336 331 329 324 319 316 311 310 312 313 314 315 316 318 321 324 326 326 327 329 332 332 332 331 332 333 332 331 328 326 325 325 327 327 327 326 325 322 315 310 308 300 284 273 269 265 261 256 253 250 248 245 241 238 235 233 232 230 230 229 225 223 224
19 17 14 12 10 9 6 4 1 357 355 354 352 352 351 350 347 345 343 339 335 338 339 336 334 327 323 320 309 310 312 311 315 316 317 319 319 324 327 326 327 329 331 330 331 333 335 335 334 333 331 328 325 324 326 328 329 330 328 324 319 317 316 309 292 277 270 265 261 256 252 250 247 245 241 238 236 236 233 228 228 229 225 223 225
17 14 11 10 8 7 7 4 359 356 356 355 353 354 352 351 349 347 345 341 337 339 340 340 336 329 327 321 309 308 308 310 315 316 318 319 319 325 326 325 328 329 329 328 329 333 337 337 336 334 332 331 328 325 327 331 332 332 330 326 323 319 314 308 296 281 270 265 262 256 252 248 246 243 237 233 232 235 236 232 228 228 226 222 224
16 13 8 8 8 6 6 4 359 358 358 355 354 355 353 351 349 347 346 342 339 339 341 340 335 329 328 321 313 308 302 307 313 315 318 319 322 326 324 325 329 329 328 330 330 333 337 337 336 335 334 333 331 329 330 334 335 335 332 329 324 318 309 304 299 285 272 266 261 257 252 247 245 241 234 228 226 227 232 234 232 229 226 222 222
15 13 7 4 6 5 4 2 360 360 358 356 356 355 353 351 348 348 346 343 343 341 341 342 335 330 330 324 318 309 298 302 310 313 317 321 326 326 323 323 327 329 331 333 335 335 338 338 337 337 335 334 333 332 333 334 337 338 335 331 327 320 311 307 302 287 272 266 262 256 251 247 245 241 234 228 224 223 225 229 233 230 225 222 222
10 11 8 2 1 1 360 358 358 358 357 357 355 354 355 352 348 350 347 343 344 343 343 343 336 333 334 326 319 310 296 299 307 309 316 325 328 325 323 323 327 331 333 335 338 339 339 340 339 338 337 335 334 334 335 334 336 338 334 333 334 330 320 315 308 294 277 266 263 258 253 247 243 239 232 227 224 222 222 228 233 231 226 222 221
5 7 5 360 358 358 357 355 354 356 357 355 353 352 354 351 347 348 347 345 345 344 345 342 335 335 335 327 321 312 297 296 305 308 316 324 326 325 326 326 328 332 335 337 340 341 341 341 342 340 339 337 335 335 337 337 335 335 333 336 343 343 333 325 317 304 288 274 268 262 254 247 239 232 227 225 224 219 217 224 232 232 228 221 218
2 5 5 1 358 356 357 354 351 355 356 353 352 351 350 349 348 345 345 347 345 346 348 341 334 335 333 327 322 314 299 294 307 316 317 320 324 327 328 329 331 334 337 340 340 343 344 343 344 343 340 339 337 337 340 341 338 335 334 337 346 348 341 330 322 310 294 282 274 261 249 242 233 225 221 218 220 217 211 213 222 230 231 221 215
359 1 2 3 360 356 356 353 351 355 354 350 351 352 348 349 350 346 345 347 346 348 351 345 337 339 335 328 325 322 308 293 322 330 321 319 324 326 329 332 335 337 339 341 343 347 348 347 347 346 344 341 338 339 341 342 341 338 336 338 344 349 348 339 326 313 295 281 272 257 243 235 226 221 219 215 215 215 210 206 207 216 225 224 218
357 357 356 1 0 356 354 351 351 352 351 350 351 353 351 351 349 348 347 346 346 348 352 351 345 343 339 331 332 332 320 312 338 334 324 323 326 327 333 338 339 338 338 342 346 348 350 351 350 349 347 344 341 341 342 342 343 341 340 341 344 348 352 347 336 321 301 280 266 255 239 229 222 218 217 215 214 213 207 201 199 203 209 216 220
352 352 351 355 354 352 351 350 349 349 349 350 352 352 353 352 349 349 348 345 347 349 353 356 350 345 341 338 340 334 329 346 339 333 329 332 331 332 338 340 340 338 338 343 347 346 348 352 352 351 350 347 345 344 343 343 344 343 343 345 345 347 353 355 347 330 308 288 266 254 237 225 221 217 214 211 210 208 203 198 200 202 201 204 210
344 345 347 349 347 347 347 346 346 347 348 348 350 352 352 353 351 349 349 347 347 349 352 357 355 352 349 343 337 332 340 346 334 331 337 338 337 338 340 340 340 340 340 343 346 345 346 349 352 353 351 348 346 347 347 345 345 345 346 347 347 348 354 357 352 336 307 291 267 248 235 222 215 212 211 208 205 203 199 196 197 200 201 203 202
335 337 340 342 343 344 343 342 343 345 347 345 348 350 349 353 352 348 350 350 347 346 351 356 357 0 359 350 344 338 340 339 331 330 338 337 336 337 338 340 339 339 340 341 344 346 345 346 351 355 353 349 347 348 351 350 348 349 349 348 348 349 353 356 353 341 303 279 261 238 228 214 206 204 203 203 202 198 196 195 194 195 199 202 201
328 332 336 337 338 340 340 340 339 341 343 341 344 347 345 350 351 347 349 351 348 345 350 353 354 359 0 356 347 334 329 333 332 329 332 333 334 332 336 342 340 339 339 341 345 346 346 346 348 353 355 352 349 348 352 354 352 353 351 349 348 349 353 355 352 344 304 261 248 225 216 206 199 199 196 194 195 195 195 195 192 192 193 192 197
324 328 333 333 333 336 338 339 338 339 339 338 340 342 342 347 349 347 346 348 350 347 349 352 352 354 355 350 343 334 328 331 332 327 326 329 331 328 332 339 340 341 341 343 349 347 347 347 347 352 356 355 352 350 352 354 355 355 352 349 349 349 352 353 350 346 316 244 235 213 207 201 194 194 191 186 187 190 192 191 189 192 192 188 194
324 326 330 329 330 333 336 339 339 337 336 335 336 338 339 343 345 346 346 348 351 349 348 351 350 350 349 345 342 339 336 334 330 325 320 319 322 324 330 334 337 345 346 345 348 346 348 348 347 354 356 356 355 353 353 355 356 356 352 351 351 350 353 353 350 348 335 224 220 207 202 200 192 190 186 182 184 187 189 188 186 189 191 191 196
323 325 325 326 331 333 334 337 338 337 335 333 334 334 335 339 341 344 347 348 350 349 349 350 349 348 347 345 344 342 341 341 336 333 326 315 315 321 329 332 336 345 347 346 344 345 352 349 347 357 359 357 358 356 353 354 357 356 354 354 353 354 356 354 352 353 357 194 205 206 201 198 193 188 182 180 184 184 184 186 183 180 186 193 199
321 322 322 328 335 335 335 336 338 338 335 331 330 330 331 336 339 341 344 345 349 349 349 349 348 348 347 344 345 344 343 343 341 339 333 318 317 321 330 335 336 337 339 341 341 345 354 353 350 357 2 1 360 359 355 353 356 357 356 358 357 359 1 356 355 4 39 130 180 208 205 196 190 185 182 178 179 179 179 183 183 180 185 194 197
316 317 322 334 337 337 337 337 339 339 336 331 328 326 328 333 336 340 342 343 347 346 347 350 348 350 350 346 345 344 343 341 338 336 330 321 322 324 332 334 329 330 333 333 342 350 354 358 358 358 3 6 3 1 359 354 355 357 359 2 2 6 7 359 2 21 50 62 109 189 198 191 182 178 179 176 177 178 177 180 186 186 188 196 194
313 313 325 337 336 335 338 337 338 337 333 330 326 323 324 330 336 340 341 342 344 344 346 349 348 349 350 345 341 342 344 341 333 328 323 325 328 328 338 335 328 331 330 327 344 358 355 2 4 2 4 8 7 5 4 358 356 359 2 5 6 11 11 5 12 30 37 25 52 99 185 188 174 171 175 175 181 181 178 181 186 186 187 192 190
307 312 324 334 333 332 336 335 333 332 329 327 324 323 322 327 334 339 341 341 343 343 343 345 346 347 347 344 338 341 346 341 331 327 326 332 336 336 342 339 333 331 328 330 347 357 359 6 7 4 4 8 9 10 9 2 359 1 4 5 7 13 16 13 18 28 29 23 57 89 166 188 164 164 174 173 178 176 174 184 187 186 186 184 180
296 306 317 324 325 328 329 329 330 329 329 327 324 322 320 324 331 337 340 340 339 340 339 340 342 343 344 343 337 340 346 341 334 335 337 339 341 341 341 338 336 334 334 341 351 357 2 6 8 7 5 7 10 11 12 5 2 4 6 8 10 16 23 24 23 25 28 34 83 112 133 186 163 158 169 165 168 165 168 187 191 187 183 175 168
293 295 303 310 315 322 322 325 330 330 330 330 325 322 321 323 329 333 336 338 336 335 336 337 338 340 342 342 337 340 346 343 339 343 344 342 340 338 337 335 338 341 339 343 351 2 4 2 9 12 7 7 10 13 15 9 5 6 7 12 15 21 28 31 30 29 33 40 56 108 108 131 148 156 166 163 162 158 163 184 189 180 172 162 155
286 286 290 299 308 316 319 323 332 332 331 329 324 322 320 321 326 329 332 335 331 331 333 335 336 337 341 341 338 341 348 346 345 349 350 349 346 343 340 334 338 344 343 343 348 1 5 3 9 13 10 8 9 13 19 15 9 8 8 13 18 23 28 32 36 38 38 40 44 61 95 93 93 122 146 153 158 156 159 173 168 157 153 149 146
276 280 282 288 295 307 316 323 331 334 331 324 319 317 315 318 324 327 331 331 325 328 331 332 335 337 340 343 340 345 350 347 349 355 355 354 355 355 354 347 342 342 342 343 345 354 3 5 7 9 9 8 7 13 23 21 12 8 11 17 19 24 28 32 40 45 45 42 43 52 73 82 78 86 110 124 137 144 149 157 151 142 141 143 143
265 270 274 278 283 295 309 322 331 333 329 322 316 312 312 318 322 325 331 328 322 327 331 332 335 338 341 343 343 348 351 349 353 360 360 359 358 358 0 357 353 351 344 339 345 356 0 4 11 11 8 8 8 14 26 25 13 11 16 20 20 24 29 35 43 47 49 49 49 52 62 71 71 73 87 103 126 139 142 140 137 134 134 134 133
255 259 266 271 276 287 302 318 328 330 327 321 315 313 313 319 324 328 333 330 325 328 333 335 337 339 341 343 346 351 350 351 359 4 2 0 359 359 1 1 359 358 354 343 341 358 1 1 8 15 12 10 9 14 27 28 17 15 20 22 23 26 30 37 45 49 50 52 55 56 61 66 64 66 74 78 85 102 111 113 115 116 117 117 118
249 251 258 263 268 278 294 310 321 328 325 319 315 310 307 316 328 333 334 334 334 335 338 339 339 341 341 341 348 350 349 351 356 2 3 359 358 1 2 2 2 2 359 351 338 350 360 0 7 18 16 11 11 16 25 30 23 20 21 23 27 30 33 38 44 51 53 53 56 59 62 65 64 65 71 71 72 82 91 95 98 100 101 104 106
246 248 253 254 257 266 282 296 312 322 319 310 305 298 292 301 323 336 339 340 346 347 345 345 345 346 342 340 348 349 347 349 350 354 0 358 357 1 2 2 3 4 2 354 340 339 356 6 15 24 19 12 14 18 24 31 30 26 25 26 31 37 40 42 44 49 55 56 57 61 63 65 66 67 71 72 73 78 83 86 89 92 93 96 98
241 245 250 247 247 257 269 282 298 310 310 297 284 277 279 291 311 334 341 345 352 354 353 352 350 350 346 343 350 349 342 344 346 349 357 357 356 360 3 3 2 4 3 357 345 337 351 10 18 23 21 17 17 17 21 32 35 33 32 31 34 42 45 46 46 47 54 59 61 63 66 68 69 69 70 72 75 78 81 84 86 89 90 93 95
237 241 246 244 245 253 261 273 285 298 305 292 277 267 273 289 302 322 337 340 349 354 356 357 354 350 349 347 353 353 342 342 346 351 356 355 355 2 4 3 2 2 3 2 358 349 352 9 17 18 19 18 18 15 15 29 41 40 38 36 37 42 43 43 44 45 51 58 62 64 67 70 71 72 72 72 73 76 78 81 85 88 90 91 93
239 240 242 242 247 253 260 271 277 288 301 291 278 268 265 279 294 307 324 332 341 348 353 357 353 349 350 348 353 354 345 345 349 352 357 356 357 4 5 1 3 3 2 5 5 357 357 6 14 18 20 18 18 17 14 25 45 50 46 42 39 42 44 43 45 45 47 54 60 63 65 69 71 72 73 74 75 76 77 77 80 84 88 90 92
242 242 242 242 246 252 257 266 273 285 296 291 280 270 261 265 280 295 310 319 331 341 346 351 350 348 348 346 351 355 351 353 353 351 355 356 358 5 7 4 4 4 5 6 3 360 7 11 8 11 21 24 21 21 19 24 41 55 57 52 45 43 46 49 53 52 50 52 56 59 61 65 70 72 73 73 75 78 80 80 80 83 87 90 91
244 242 243 242 242 249 255 258 266 280 290 291 282 270 263 261 265 277 286 296 315 328 335 346 348 344 343 342 345 350 352 357 356 351 355 359 360 4 8 7 6 5 6 5 360 1 13 17 11 11 21 29 26 24 24 26 36 49 60 62 54 46 43 46 50 51 51 52 53 55 58 61 66 70 72 74 76 78 81 85 85 87 89 90 91
244 242 244 243 240 246 252 252 257 269 282 288 281 267 262 260 261 269 277 284 299 313 320 334 344 342 340 341 341 344 350 356 356 353 356 358 359 4 9 8 7 7 7 4 2 6 13 16 19 20 22 27 31 29 26 30 38 43 51 61 60 50 42 42 44 47 52 54 52 54 57 58 62 69 72 75 79 80 81 82 84 86 86 87 89
245 244 246 245 241 243 245 245 247 255 268 276 274 269 265 262 261 264 271 283 294 303 311 322 335 339 337 344 346 343 344 352 358 357 355 355 356 3 11 11 8 8 7 6 7 10 17 23 24 22 22 26 32 32 27 29 36 36 39 55 66 61 50 46 46 49 54 56 54 54 55 56 61 67 71 72 77 81 82 82 83 84 86 88 90
243 244 244 242 241 242 242 240 240 245 255 257 261 275 270 259 261 266 269 279 291 303 311 319 330 335 335 342 348 350 348 353 2 357 352 356 360 4 11 12 10 8 5 11 19 16 18 30 32 25 26 29 32 34 30 26 33 37 36 53 70 72 65 57 51 50 54 59 60 57 52 53 60 66 68 68 73 80 85 86 86 85 85 89 92
240 240 238 236 236 240 241 239 237 240 242 241 257 283 275 250 252 264 270 272 282 298 307 318 328 330 331 331 338 352 359 355 353 354 359 7 15 25 28 24 21 15 8 13 25 27 27 34 34 28 32 37 36 35 30 23 33 47 46 52 71 81 79 71 58 53 53 58 62 57 48 50 60 66 67 66 68 74 80 84 86 87 87 89 92
239 237 234 234 236 239 241 240 238 240 238 237 256 284 281 252 244 250 264 267 272 288 297 313 326 326 327 331 329 342 355 351 341 349 6 13 28 53 45 35 34 32 25 18 18 27 33 31 29 29 34 42 40 34 28 26 36 49 52 54 66 75 77 75 66 57 53 58 64 60 50 51 61 65 65 64 68 74 78 80 81 84 87 90 93
236 233 231 233 238 241 241 240 241 243 240 241 257 277 282 267 243 238 253 261 258 270 285 305 324 326 321 325 334 336 349 2 1 1 10 12 33 52 37 31 37 37 33 26 19 24 28 24 28 32 27 32 42 39 28 17 31 51 58 59 64 69 71 72 73 69 66 68 72 68 57 54 62 65 63 63 69 77 81 80 81 84 87 89 93
232 230 229 230 235 238 237 236 240 244 240 243 256 268 275 277 254 236 241 251 250 251 264 295 317 326 317 314 333 347 353 9 13 14 20 26 46 45 28 30 40 37 33 27 24 28 31 28 34 34 21 17 34 42 29 9 31 57 65 64 68 72 71 71 74 76 79 79 78 75 64 56 62 67 64 64 70 76 79 79 81 86 88 88 90
229 228 225 224 228 231 230 229 233 238 236 241 252 260 266 277 266 242 234 237 238 234 238 278 308 316 315 312 326 351 7 14 9 5 12 44 63 51 32 36 43 42 36 28 25 31 34 35 37 36 31 28 34 41 31 20 42 61 68 71 77 81 80 79 78 78 81 84 82 79 69 59 66 71 66 66 72 76 78 80 82 85 87 88 89
229 225 223 225 227 228 227 225 226 229 232 239 249 253 258 270 267 245 230 226 224 218 218 240 277 289 297 304 315 347 14 10 6 9 12 19 42 55 47 37 41 50 43 32 29 33 38 41 44 45 46 43 45 51 46 40 52 65 74 76 81 88 88 84 80 77 76 77 78 81 80 70 72 76 73 71 74 75 75 78 82 86 87 87 88
226 223 229 233 231 228 225 222 222 224 230 238 244 244 249 260 256 238 224 218 215 207 205 211 208 218 261 290 298 323 24 360 352 15 31 6 358 46 52 40 40 51 45 33 29 30 38 49 55 58 53 47 44 52 62 65 58 62 76 76 75 89 92 85 81 78 77 76 76 83 87 80 76 80 81 77 75 73 72 73 75 80 85 86 88
221 227 237 236 231 230 226 220 218 219 226 236 239 238 245 250 235 221 218 215 212 203 197 198 188 180 202 231 271 306 20 355 332 9 37 330 311 33 57 42 44 48 47 43 35 30 34 48 55 61 64 57 48 46 63 76 50 44 64 74 73 89 95 90 87 87 87 86 85 87 89 86 82 84 83 77 73 71 71 70 69 71 76 81 85
231 238 244 240 233 233 229 219 214 214 222 234 237 234 239 241 220 207 213 214 209 203 195 191 182 179 185 172 171 304 2 333 311 360 31 302 308 65 69 41 49 52 47 51 52 42 41 47 50 55 62 61 55 48 49 60 43 38 55 74 82 90 93 92 96 100 97 90 88 93 96 97 97 93 89 82 71 65 67 69 67 66 69 73 78
237 239 242 241 236 235 230 221 218 219 220 228 232 231 234 237 219 205 210 213 208 204 197 186 179 179 179 168 164 216 45 3 307 310 295 312 339 56 90 44 64 64 50 44 42 45 61 65 61 64 66 63 62 57 46 39 36 33 45 66 79 89 96 100 105 109 103 88 90 104 116 118 113 102 97 94 78 60 60 65 67 67 67 68 71
Height
797 796 795 794 793 792 791 790 789 788 787 786 785 783 782 780 779 777 775 774 772 770 769 767 765 764 762 761 760 759 757 756 754 753 751 749 747 746 745 743 742 740 738 736 733 730 728 724 721 718 715 712 709 706 703 700 697 694 692 690 688 686 684 683 681 680 679 679 678 678 678 679 679 680 681 683 684 685 687 688 689 691 692 694 695
798 796 795 794 794 793 792 791 790 788 787 786 785 784 782 780 779 777 775 773 771 770 768 766 764 763 761 761 759 758 757 755 753 752 750 748 747 745 744 742 741 739 737 735 732 729 727 724 720 717 714 711 707 704 700 698 695 692 689 687 685 683 681 679 677 676 675 675 674 674 674 675 675 676 677 679 680 682 683 685 686 688 689 691 693
798 797 796 795 794 793 792 791 790 789 788 787 785 784 782 781 779 777 776 773 771 770 768 766 764 762 760 759 758 757 756 754 752 751 749 748 746 744 742 741 740 738 736 734 731 728 726 722 719 716 712 709 706 702 698 695 692 689 687 684 682 679 677 675 674 672 672 671 670 670 670 671 671 672 673 674 676 678 679 681 683 685 686 688 691
799 798 796 796 795 794 793 792 791 790 789 787 786 785 783 781 780 778 776 774 771 769 768 766 763 762 760 758 757 756 755 753 751 750 749 747 745 744 742 740 738 736 735 732 730 727 724 721 718 715 711 707 704 700 696 693 690 687 684 681 679 677 674 672 670 669 668 667 666 666 666 667 667 668 669 670 672 674 676 677 680 681 683 685 688
799 798 797 796 795 794 793 792 792 790 789 788 786 785 783 782 780 778 776 774 771 769 767 765 763 761 759 758 756 755 754 752 750 749 748 747 745 743 741 739 737 735 733 731 729 726 723 720 717 713 710 706 703 699 694 691 687 684 681 678 676 674 671 669 667 665 664 663 663 662 663 663 664 665 666 667 669 671 672 674 677 678 680 682 685
800 799 798 797 796 795 794 793 792 791 789 788 787 785 784 782 780 778 776 774 771 769 767 765 763 761 759 758 756 754 753 751 750 749 748 747 745 743 741 739 737 734 732 730 727 724 722 719 715 712 709 705 702 697 693 689 685 681 679 676 673 670 668 666 663 661 660 659 659 659 659 660 661 662 663 665 667 668 670 671 673 676 677 679 682
800 800 798 797 796 795 794 794 793 792 790 789 787 786 784 783 781 778 776 774 772 770 768 766 764 761 759 757 756 754 753 751 749 749 747 746 745 743 741 738 736 734 732 729 726 723 721 718 714 711 707 704 701 696 692 687 683 679 676 674 671 669 666 663 660 658 657 656 655 655 655 656 657 658 659 661 664 666 668 669 671 673 674 676 679
801 800 799 797 797 796 795 794 793 792 790 789 788 786 785 783 782 779 777 775 772 770 768 767 764 761 759 757 755 754 752 750 749 749 747 745 744 742 740 738 735 734 731 728 725 722 719 717 713 709 706 703 699 695 690 686 681 677 674 672 669 666 663 660 657 655 653 652 652 652 652 653 653 654 656 658 659 662 665 668 669 671 672 674 676
801 801 800 798 797 796 795 795 794 792 791 790 788 787 786 784 783 780 778 775 772 770 769 767 765 761 759 757 755 753 752 750 749 748 747 745 743 741 739 737 735 733 730 727 724 721 718 715 712 708 705 702 698 694 690 685 680 676 673 671 668 663 658 656 654 652 650 649 649 649 649 650 651 652 654 655 657 658 661 664 667 669 670 671 673
802 801 800 799 797 797 796 795 794 793 792 790 789 788 787 786 783 781 780 776 773 771 769 768 765 761 759 757 754 753 751 750 749 748 746 744 742 740 738 736 734 731 729 726 723 721 718 715 711 707 704 701 698 694 690 685 680 675 672 670 666 660 655 653 650 648 647 646 646 646 647 647 648 650 652 653 655 657 659 662 666 668 668 668 670
802 801 800 799 798 797 796 795 794 793 792 791 790 788 787 786 784 781 780 777 774 772 771 769 765 762 759 757 754 752 750 749 748 747 745 744 742 739 737 735 732 730 728 725 722 720 717 715 711 707 704 701 697 693 689 685 680 676 671 667 663 658 654 650 647 645 644 644 644 644 644 645 646 647 649 651 653 654 656 659 664 666 667 667 668
802 801 801 800 798 797 797 796 795 793 792 791 790 788 787 786 784 782 779 777 775 773 772 770 766 763 760 757 753 751 749 749 748 746 745 743 741 739 737 734 732 729 727 724 722 720 717 715 711 708 704 701 697 693 688 685 681 677 671 666 663 659 654 650 646 643 642 642 642 642 642 643 644 645 647 649 651 653 653 656 660 664 667 666 666
802 801 801 800 799 798 797 796 795 794 793 792 790 789 787 786 784 782 780 777 775 773 772 771 766 762 760 756 753 750 748 748 748 747 745 743 741 739 736 734 731 728 726 724 721 719 717 715 712 709 705 701 697 692 688 685 681 677 672 666 663 660 656 651 647 644 642 641 641 640 640 641 642 643 645 647 650 651 651 652 655 660 665 667 666
802 802 801 800 799 798 797 796 795 794 793 791 790 789 787 786 785 782 781 778 776 774 773 771 766 763 760 756 752 749 747 747 748 747 744 743 740 738 736 733 731 728 726 724 722 719 717 715 712 709 706 703 698 694 689 685 681 677 672 666 661 659 657 652 648 645 642 640 639 639 639 639 641 642 644 646 648 650 650 651 653 657 662 665 667
801 801 800 799 799 798 796 795 795 793 792 791 790 788 787 786 785 783 781 779 777 775 773 772 769 765 761 757 753 750 747 747 748 746 744 742 740 738 735 733 731 729 726 724 722 720 717 715 713 710 707 704 700 696 691 686 681 676 671 667 661 657 655 651 646 644 642 639 638 638 638 638 640 642 643 645 647 649 650 651 653 656 659 662 664
801 800 799 799 798 797 796 795 794 793 792 791 789 788 787 785 785 783 781 780 778 776 774 773 771 767 764 760 756 752 749 749 747 744 742 741 739 737 735 733 731 729 727 725 722 720 718 716 713 710 707 704 701 697 692 688 682 677 671 667 661 655 651 647 644 641 640 638 637 637 636 637 638 641 643 644 646 648 649 651 652 655 658 661 663
801 800 799 799 798 797 796 795 794 793 792 791 789 788 787 785 785 783 782 780 779 777 775 773 772 770 768 765 760 756 754 752 748 743 742 741 739 737 735 734 731 729 727 725 723 721 719 716 714 711 708 705 702 698 694 689 684 678 672 667 662 655 649 646 643 639 637 636 636 635 635 636 637 639 641 643 645 647 649 650 652 654 657 661 663
800 799 799 798 798 797 796 795 793 792 792 791 789 788 787 785 785 783 782 781 779 778 775 774 772 771 770 769 767 765 760 756 752 746 742 740 739 737 735 734 732 729 727 725 723 721 719 717 714 711 708 705 702 699 695 691 686 680 675 669 663 656 649 645 642 637 633 633 634 634 634 635 636 637 638 641 644 646 648 650 652 655 657 660 662
799 799 798 798 797 796 795 794 793 792 791 790 789 788 787 785 785 784 782 781 780 778 776 774 772 771 770 770 769 767 764 761 758 753 747 742 739 737 735 734 732 729 727 725 723 722 719 717 715 711 709 706 703 700 696 693 688 682 676 670 664 658 650 644 639 634 629 630 631 632 633 634 635 636 638 640 642 645 648 650 653 655 657 659 661
799 798 798 797 797 796 795 794 793 792 790 789 788 788 787 786 785 784 782 781 780 779 777 775 773 771 770 769 767 765 764 762 760 758 754 748 741 737 734 733 731 729 727 725 723 722 720 717 715 712 709 706 704 701 697 694 689 683 677 672 665 659 651 643 637 631 627 628 630 631 632 634 635 636 638 640 642 645 647 650 652 655 657 659 660
799 798 797 797 796 795 794 793 792 791 790 789 788 787 786 785 784 783 782 781 780 779 778 776 774 772 770 769 767 764 762 761 759 757 755 752 746 739 736 732 729 728 727 725 723 722 720 718 716 713 710 707 705 702 699 695 690 685 680 674 667 660 651 644 636 630 627 628 630 631 632 634 635 636 638 640 642 644 647 650 652 654 656 658 661
798 797 797 796 795 795 794 793 792 791 790 789 788 787 786 785 784 783 782 781 780 779 778 777 775 773 771 769 766 765 762 760 759 757 755 753 748 742 737 734 730 727 726 725 723 722 720 718 716 714 711 708 706 704 700 696 692 688 683 676 669 661 653 645 636 630 629 630 631 633 634 635 636 637 639 641 643 644 646 649 652 654 655 658 660
797 796 796 795 795 794 793 793 792 791 790 789 788 787 786 785 784 783 782 781 780 779 778 777 775 773 772 770 767 766 764 761 759 758 755 752 749 744 739 737 733 730 727 724 723 721 720 718 716 714 712 709 707 705 702 698 694 690 684 677 671 663 656 648 638 633 632 632 633 635 637 637 637 639 640 642 643 645 647 649 651 654 655 657 659
796 795 795 795 794 794 793 792 791 790 789 788 787 786 785 785 783 782 782 781 780 779 778 776 775 773 771 770 768 766 764 762 760 758 756 753 750 746 742 739 735 730 728 725 722 721 720 718 717 715 713 711 709 707 704 700 696 692 686 680 673 666 658 650 641 636 635 634 635 637 639 639 639 640 642 643 644 646 648 650 652 654 656 658 660
795 795 794 794 793 793 792 791 791 790 789 788 787 786 785 784 783 782 781 780 780 779 778 776 775 773 771 770 768 766 764 762 760 758 756 753 750 746 743 741 737 731 728 724 721 721 720 718 717 716 714 712 709 708 705 702 698 694 689 683 677 670 662 653 644 639 637 636 637 637 639 640 640 641 642 643 645 646 648 651 653 655 657 658 660
794 794 794 793 793 792 792 791 790 789 788 787 786 785 785 783 782 781 780 780 779 778 777 776 775 773 772 770 768 766 764 762 760 758 755 753 751 748 745 742 738 732 727 724 722 721 720 719 718 717 715 713 711 709 707 704 700 696 692 687 682 675 668 658 650 644 640 638 638 638 639 640 641 642 643 644 645 646 649 652 654 655 657 659 661
794 793 793 793 792 791 791 790 789 788 787 786 785 785 784 783 782 781 780 779 779 778 777 775 774 773 771 770 768 766 764 762 760 758 756 754 752 750 747 744 739 733 728 724 722 721 721 720 719 718 716 714 712 710 708 706 702 698 694 691 687 680 673 665 657 651 645 641 640 640 640 641 641 642 643 645 646 646 649 653 655 656 657 660 662
793 793 792 792 791 791 790 789 788 787 786 785 785 784 784 783 782 781 780 779 778 777 776 775 774 773 771 770 768 766 764 762 761 758 756 755 753 751 749 746 742 737 731 726 722 722 722 721 720 719 718 716 714 712 710 708 705 701 697 695 691 685 679 672 664 658 653 647 643 642 642 643 644 645 645 646 647 647 650 654 656 657 659 662 665
793 792 792 791 791 790 789 788 787 786 785 785 784 784 783 782 781 781 780 779 778 776 775 774 773 772 771 770 768 766 764 762 761 759 757 755 753 751 749 747 745 741 735 730 726 723 723 722 721 720 719 717 716 714 712 710 707 704 700 698 696 691 685 678 671 665 662 656 649 646 645 645 646 647 648 647 647 648 651 655 657 658 661 664 666
792 792 791 791 790 790 789 788 787 786 785 784 784 783 783 782 781 780 779 778 777 776 775 774 773 772 771 769 768 766 765 763 761 759 757 755 753 751 749 747 745 743 739 735 730 726 725 724 723 722 721 719 717 715 714 712 710 707 704 702 700 696 690 684 677 672 669 664 657 652 648 647 649 650 650 650 649 650 653 656 658 660 663 666 668
790 790 790 790 790 789 788 788 787 786 785 784 784 783 782 782 781 780 779 778 777 775 775 774 773 772 770 769 768 766 765 763 761 759 757 756 754 751 749 748 745 743 741 738 733 729 728 727 725 724 723 721 719 717 716 715 713 710 707 706 703 700 696 690 685 680 677 672 667 662 656 655 656 655 654 655 654 653 655 658 661 665 667 669 672
789 789 789 789 789 788 788 787 786 785 784 784 783 782 782 781 780 779 778 778 776 775 774 773 772 771 770 769 767 766 765 763 761 760 758 756 754 752 750 748 746 744 742 741 736 732 730 729 727 726 725 723 721 719 718 717 716 713 711 709 708 705 701 696 692 688 684 681 677 672 666 665 667 665 663 662 659 657 660 663 665 669 673 674 678
788 788 788 787 787 787 787 786 785 784 784 783 782 781 781 780 779 779 778 777 776 775 774 773 772 771 770 769 767 766 765 764 762 760 758 756 755 753 751 749 747 745 744 742 739 734 731 730 729 728 727 725 723 722 720 719 718 717 714 713 711 709 707 703 700 696 692 688 684 680 676 675 676 675 673 671 668 667 668 669 671 675 679 681 685
786 786 786 786 786 786 785 785 784 784 783 781 781 780 780 779 779 778 778 777 776 775 774 773 772 771 770 769 767 766 765 764 762 760 758 757 755 753 752 750 748 746 744 743 741 736 733 731 731 730 728 727 725 724 723 721 720 719 717 716 714 713 712 709 707 703 699 695 691 688 686 685 685 684 682 679 678 676 676 677 679 683 685 688 691
785 785 785 785 785 785 785 784 784 783 782 781 780 780 780 780 779 778 778 777 776 775 774 773 772 771 770 769 767 766 765 763 762 761 759 758 756 754 752 750 748 746 744 743 742 738 735 733 733 732 730 729 728 726 725 724 722 721 720 719 717 717 715 713 711 709 706 703 700 696 694 693 693 692 690 687 685 683 683 686 689 690 692 695 697
784 784 784 784 784 784 784 784 783 783 782 781 780 780 780 780 779 778 777 777 776 775 774 773 772 771 770 769 767 766 765 763 762 761 760 758 756 754 753 750 748 746 745 744 743 741 738 736 735 734 733 732 730 729 727 726 724 723 723 722 720 719 718 717 715 713 712 709 707 704 702 700 699 698 697 695 693 692 693 695 697 698 699 702 703
783 783 783 783 783 783 783 783 783 782 781 781 780 780 779 779 779 778 777 777 776 775 775 774 772 771 770 769 768 766 765 763 762 761 760 759 757 755 753 751 749 747 746 745 744 742 740 738 736 736 735 733 732 731 729 728 726 725 725 724 723 722 721 721 719 718 716 714 712 711 709 708 706 704 704 703 701 700 701 703 704 705 706 707 709
782 782 782 782 782 782 782 781 781 781 781 780 779 779 779 778 778 778 777 777 776 775 775 774 772 771 770 769 768 767 765 764 763 762 761 760 758 756 754 752 749 748 746 746 744 742 740 739 738 737 736 735 734 733 732 730 728 727 727 726 726 725 724 723 723 722 720 718 717 716 715 714 712 710 710 709 708 707 708 710 710 711 712 713 714
781 781 780 780 780 780 780 780 780 780 779 779 778 778 778 778 777 777 777 776 776 775 774 774 773 771 770 769 768 767 766 765 764 763 761 760 759 757 755 753 750 748 747 746 745 743 741 740 739 738 737 736 735 734 734 733 731 730 729 728 728 728 727 726 726 725 724 722 721 720 720 719 717 716 715 714 714 714 715 716 716 717 718 719 718
779 779 779 779 779 779 778 778 778 778 778 777 777 777 777 777 776 776 776 775 775 775 774 773 772 771 770 769 768 768 767 765 764 763 762 761 759 757 756 754 752 749 748 747 746 744 742 741 740 740 739 738 737 737 736 734 733 733 732 731 731 731 730 729 729 728 727 726 725 724 723 723 723 722 721 721 721 721 722 722 723 723 724 723 723
777 777 777 777 777 777 777 776 776 776 776 776 776 775 775 775 775 775 775 775 775 774 773 773 772 771 770 769 768 768 766 765 764 763 762 762 760 759 757 756 754 751 749 747 746 745 744 742 742 741 740 739 739 739 738 737 736 736 736 734 733 733 734 733 732 732 731 730 729 728 728 728 728 727 727 727 727 728 728 728 729 729 729 728 728
774 774 774 774 774 775 774 774 774 774 774 774 773 773 774 774 774 774 774 774 774 774 773 772 772 771 770 769 768 767 766 765 764 763 763 762 761 760 759 757 756 753 751 749 748 747 745 744 743 742 741 741 742 741 741 740 738 737 737 737 735 736 736 736 736 736 735 734 732 732 733 734 732 732 731 732 733 733 733 734 734 734 734 734 733
772 772 772 772 772 773 773 773 773 773 772 772 771 772 772 772 772 773 772 772 772 773 772 772 771 771 770 769 768 767 767 766 765 764 763 762 761 760 760 758 757 755 753 751 750 748 747 745 745 744 743 743 744 743 743 742 740 739 739 739 738 737 738 738 739 740 739 738 736 736 738 738 737 736 736 737 737 737 738 739 740 739 739 738 738
769 769 770 770 771 772 772 771 771 771 770 770 770 770 770 770 770 771 771 771 771 771 771 771 771 770 770 769 768 767 767 766 765 763 762 762 761 761 760 759 757 756 755 754 752 750 749 748 747 746 746 745 745 745 744 743 742 742 742 741 741 740 741 741 742 743 743 742 740 740 742 743 742 741 741 743 743 743 743 744 744 744 743 743 742
767 767 767 769 770 770 770 769 769 769 769 768 768 768 768 769 769 769 769 770 770 770 770 770 770 770 769 769 768 767 766 766 765 764 762 762 761 761 760 758 757 756 755 755 754 753 752 751 749 749 748 747 746 746 746 745 745 744 744 744 744 744 744 745 745 746 747 747 745 744 746 748 748 746 747 748 748 747 748 748 748 748 747 747 746
763 763 764 765 766 766 766 766 766 767 767 766 766 766 766 767 767 767 768 769 768 768 769 769 769 769 769 769 767 766 766 765 765 764 762 761 761 760 760 759 758 758 757 756 755 754 753 752 752 751 750 749 748 748 748 747 746 746 746 746 747 746 747 747 748 748 749 750 749 748 750 753 753 751 752 754 753 752 752 752 752 751 751 751 751
760 760 761 762 762 762 763 763 763 764 764 764 764 765 765 765 766 766 767 767 767 767 768 768 768 768 768 768 767 766 766 765 765 763 762 761 760 760 760 759 758 758 758 758 757 756 755 754 753 753 752 751 750 750 750 749 748 748 749 748 748 749 749 749 750 750 751 752 752 751 753 756 757 755 757 758 757 756 757 756 756 755 755 755 755
758 758 759 759 759 760 760 760 760 761 761 761 762 763 763 763 764 764 766 766 766 766 766 766 767 767 767 768 767 766 766 765 765 763 762 761 760 760 760 759 758 758 758 758 757 756 756 755 754 754 753 752 752 751 751 750 750 750 750 750 751 751 751 751 751 752 753 754 755 754 755 759 760 758 760 761 761 761 761 761 760 759 759 758 758
755 756 756 755 756 757 757 757 757 759 759 760 760 761 761 762 762 763 765 765 765 765 765 765 765 766 766 767 766 766 766 765 765 764 763 762 760 760 759 758 758 758 758 758 757 757 756 755 755 755 754 754 753 753 752 752 752 752 752 752 752 752 752 752 753 754 755 756 758 757 757 760 762 761 762 763 764 764 765 765 765 764 763 762 762
751 752 752 752 753 754 754 754 755 756 757 757 758 759 759 760 761 761 763 763 763 763 763 764 764 764 765 765 766 766 765 764 764 764 763 762 760 760 759 758 758 758 758 758 758 757 757 756 756 756 755 755 754 754 754 753 753 753 753 753 753 753 754 754 754 755 756 757 759 760 760 762 764 764 764 765 766 767 768 768 768 768 767 767 767
748 748 749 749 750 751 752 752 752 753 754 755 756 757 757 758 759 759 760 760 761 761 761 762 763 763 764 764 765 765 765 764 764 764 763 762 761 760 759 758 758 759 759 759 759 758 758 757 757 757 756 756 756 756 755 755 755 755 754 755 755 755 755 756 756 756 757 758 760 761 761 763 765 765 765 766 767 770 771 771 771 771 771 771 771